User: anonymous   Login
Location: Gisborne
(38.6530°S, 178.0040°E)
Time: 19:07:12
(UTC+12:00)
Language:

Cosmos 2263 Rocket - Orbit

View from above orbital plane
View from above orbital plane
View from above satellite
View from above satellite

Ground track
Ground track

The orbit data is extracted from the following two-line orbital elements,

1 22803U 93059B   19143.62070003  .00000173  00000-0  11033-3 0  9999
2 22803  70.9903 202.8936 0016164  24.5874 335.6016 14.16807375328204
Epoch (UTC): 23 May 2019 14:53:48
Eccentricity: 0.0016164
inclination: 70.9903°
perigee height: 824 km
apogee height: 848 km
right ascension of ascending node: 202.8936°
argument of perigee: 24.5874°
revolutions per day: 14.16807375
mean anomaly at epoch: 335.6016°
orbit number at epoch: 32820

The dashed part of the orbit path shows where the satellite is in the earth's shadow,  

DLR